TIME,DELAY(SENSOR),PRES,T(CTD),SAL,OXYGEN,RAWTEMP,T(OPTODE),TCPHASE,FLUOR,BETA(BETA700),BETA(BETA412),BETA(BETA440),CDOM,C(CSC),ED(ED411.90),ED(ED443.80),ED(ED489.40),ED(ED554.70),LU(LU412.20),LU(LU443.80),LU(LU489.40),LU(LU555.00),COMP,TILTX,TILTX(TILTY),CHECK
1346598595,5805,496.4299926757812500,17.8332004547119140,36.5261993408203100,234.8988037109375000,175.3197021484375000,17.8326606750488280,31.5857601165771500,50,105,98,84,67,15416,2147484096,2147764086,2147555904,2147796224,2147313353,2147478482,2147712813,2148240274,2436,7,13,12860
1346598716,5806,484.4700012207031000,17.8831996917724600,36.5355987548828100,235.9141998291015600,173.7407073974609400,17.8807296752929700,31.5157108306884770,49,106,97,83,67,15415,2147486665,2147761728,2147554916,2147795748,2147315940,2147485732,2147708096,2148242130,2865,7,13,21994
1346598837,5803,472.6000061035156000,17.9274005889892580,36.5418014526367200,236.4216003417968800,172.2554931640625000,17.9259490966796880,31.4713706970214840,50,107,98,82,66,15414,2147486290,2147764525,2147557513,2147795913,2147309376,2147478217,2147707053,2148239478,3304,8,13,3738
1346598949,5805,461.9200134277344000,17.9941005706787100,36.5533981323242200,236.7106933593750000,170.0155029296875000,17.9941596984863280,31.4271602630615230,49,107,99,84,65,15417,2147485568,2147764352,2147557494,2147792548,2147303222,2147479890,2147710528,2148240877,533,7,13,55684
1346599059,5804,451.6199951171875000,18.0466003417968750,36.5605010986328100,236.7342987060547000,168.3993988037109400,18.0433692932128900,31.4044990539550780,50,106,97,84,66,15415,2147485494,2147760896,2147555465,2147793225,2147310528,2147478976,2147707922,2148242148,859,8,13,24251
1346599180,5805,440.4100036621094000,18.0842990875244140,36.5651016235351560,236.4561004638672000,167.1224975585937500,18.0822601318359380,31.4004592895507800,50,110,97,82,67,15416,2147485787,2147763328,2147552996,2147795501,2147317659,2147479085,2147707264,2148241965,1891,8,12,24223
1346599303,5804,429.3800048828125000,18.1562004089355470,36.5736999511718750,235.5957031250000000,164.5617980957031200,18.1602497100830080,31.4071998596191400,50,107,99,83,65,15414,2147486774,2147765641,2147555382,2147792694,2147303177,2147481563,2147709330,2148243456,2599,7,13,21187
1346599435,5802,417.9700012207031000,18.2143993377685550,36.5800018310546900,234.9797973632812500,162.8410949707031200,18.2126693725585940,31.4138507843017580,50,108,97,83,66,15412,2147485942,2147764416,2147553252,2147793344,2147309046,2147482514,2147707099,2148242322,2872,7,13,13480
1346599558,5802,407.6199951171875000,18.2541007995605470,36.5834007263183600,234.5747070312500000,161.5431976318359400,18.2521991729736330,31.4158592224121100,49,107,98,83,65,15412,2147487552,2147763638,2147556809,2147795264,2147301942,2147480411,2147707373,2148242870,3486,8,13,52327
1346599690,5804,396.5700073242187500,18.3062000274658200,36.5896987915039060,233.9553070068359400,159.6811981201172000,18.3089294433593750,31.4209403991699220,50,109,98,83,67,15409,2147486098,2147763803,2147555858,2147792630,2147316891,2147479798,2147708681,2148241581,841,7,12,49046
1346599822,5804,385.4500122070312500,18.3780002593994140,36.5965995788574200,233.1844024658203000,157.5585937500000000,18.3736095428466800,31.4294490814209000,50,107,98,83,66,15404,2147487780,2147763995,2147556891,2147793344,2147304484,2147478134,2147709202,2148239085,2217,7,12,31146
1346599956,5802,374.1799926757812500,18.4431991577148440,36.6015014648437500,232.1235961914062500,155.3977050781250000,18.4394607543945300,31.4519996643066400,50,111,97,85,66,15406,2147488420,2147764443,2147556452,2147793792,2147308214,2147483648,2147702884,2148241069,3322,7,12,8463
1346600088,5805,362.8999938964844000,18.4860000610351560,36.6054000854492200,230.9331054687500000,153.9071960449218800,18.4848899841308600,31.4899501800537100,50,108,99,85,67,15405,2147488512,2147763739,2147557568,2147793444,2147310043,2147480749,2147706450,2148238116,461,7,12,37675
1346600211,5804,352.5100097656250000,18.5408000946044920,36.6086997985839840,230.0885925292968800,152.1280975341797000,18.5391101837158200,31.5074806213378900,50,111,98,83,67,15406,2147486902,2147762212,2147556571,2147791762,2147310939,2147484105,2147707154,2148240877,555,7,12,3232
1346600343,5805,341.9299926757812500,18.6618995666503900,36.6142005920410160,228.6246032714843800,148.1672058105468800,18.6598701477050780,31.5267200469970700,50,109,97,84,66,15410,2147486537,2147760877,2147558838,2147795126,2147303798,2147480822,2147705938,2148238838,963,7,13,45285
1346600519,5804,328.1000061035156000,18.8491992950439450,36.6111984252929700,228.3182067871093800,141.8777008056640600,18.8516807556152340,31.4576606750488280,49,107,97,84,67,15411,2147489828,2147765494,2147563401,2147792795,2147310930,2147482011,2147708333,2148241261,1630,7,13,21015
1346600640,5804,316.4299926757812500,19.0055007934570300,36.5918998718261700,233.4900970458984400,136.8258056640625000,19.0058097839355470,31.1379909515380860,50,107,97,83,66,15411,2147490066,2147766473,2147562806,2147789504,2147308516,2147485266,2147708114,2148239350,2812,7,12,42813
1346600761,5804,304.3500061035156000,19.0736999511718750,36.5775985717773440,241.5438995361328000,134.5735015869140600,19.0745506286621100,30.7292499542236330,50,110,97,83,65,15413,2147488301,2147765796,2147568036,2147790884,2147302509,2147483190,2147708873,2148238948,3419,8,13,5874
1346600873,5802,293.2699890136719000,19.1643009185791000,36.5714988708496100,245.7937011718750000,131.4080047607422000,19.1711807250976560,30.4937191009521500,50,110,96,84,64,15412,2147488795,2147763382,2147569636,2147791158,2147307108,2147486774,2147711844,2148239113,562,8,12,23644
1346600983,5803,282.5899963378906000,19.2360000610351560,36.5787010192871100,247.0789031982422000,129.3556976318359400,19.2338409423828120,30.4089698791503900,50,110,96,84,63,15411,2147491099,2147765641,2147572013,2147788955,2147302985,2147483830,2147713042,2148240027,1290,8,13,45661
1346601093,5802,272.0599975585937500,19.2639999389648440,36.5761985778808600,247.7890930175781200,128.4653015136718800,19.2610206604003900,30.3656806945800780,50,108,97,84,65,15411,2147492635,2147770240,2147584329,2147792722,2147304548,2147491602,2147714614,2148239195,1498,7,12,54545
1346601205,5805,261.7099914550781000,19.3237991333007800,36.5746994018554700,249.6363983154297000,126.4886016845703100,19.3213901519775400,30.2578105926513670,50,110,98,83,64,15411,2147492836,2147770029,2147592603,2147790317,2147313993,2147487890,2147723977,2148240274,1087,7,12,51659
1346601315,5806,251.6100006103515600,19.3754997253417970,36.5746002197265600,250.0724945068359400,124.7478027343750000,19.3745594024658200,30.2158699035644530,51,112,97,83,63,15404,2147494345,2147777554,2147605366,2147786651,2147305773,2147491392,2147730578,2148242020,1092,7,12,1566
1346601436,5802,240.4499969482422000,19.4582004547119140,36.5778007507324200,250.2498016357422000,122.0128021240234400,19.4581203460693360,30.1725196838378900,54,115,98,84,64,15401,2147490980,2147780160,2147625819,2147788013,2147305106,2147486317,2147740214,2148238171,1403,7,12,5672
1346601559,5803,228.9799957275390600,19.5662002563476560,36.5856018066406250,250.1553039550781200,118.5710983276367200,19.5632896423339840,30.1319999694824220,57,112,97,85,63,15401,2147490678,2147788416,2147661458,2147788333,2147306121,2147502262,2147760749,2148239872,2455,7,12,44013
1346601680,5803,217.6799926757812500,19.6312999725341800,36.5923995971679700,249.3809051513672000,116.3608016967773400,19.6308498382568360,30.1375808715820300,60,114,99,84,64,15397,2147494957,2147798774,2147710116,2147789156,2147315922,2147509686,2147783853,2148241280,2628,7,12,31318
1346601792,5799,207.5399932861328000,19.6800003051757800,36.5987014770507800,249.4154968261718800,114.9297027587890600,19.6746006011962900,30.1177196502685550,61,111,98,85,65,15396,2147496292,2147806802,2147700160,2147791286,2147314724,2147510857,2147785755,2148241947,3088,7,12,21044
1346601913,5804,197.2799987792968800,19.9339008331298830,36.6389999389648440,243.4299011230468800,106.2600021362304700,19.9397792816162100,30.2733802795410160,55,109,97,83,65,15408,2147502436,2147840118,2147806683,2147789257,2147307154,2147530660,2147832320,2148243757,2903,8,12,49890
1346601968,5803,192.6300048828125000,20.0107994079589840,36.6502990722656250,241.2669067382812500,104.2433013916015600,20.0014991760253900,30.3457603454589840,56,110,98,84,65,15398,2147499712,2147804882,2147677531,2147786541,2147315035,2147507803,2147767954,2148237330,3390,8,12,65317
1346602023,5804,188.0099945068359400,20.0473003387451170,36.6254005432128900,244.7344970703125000,100.9601974487304700,20.1019992828369140,30.1457901000976560,57,112,99,85,65,15392,2147503753,2147841545,2147783003,2147787044,2147307556,2147527625,2147816731,2148241810,286,7,12,55327
1346602078,5804,183.5000000000000000,20.2912998199462900,36.6685981750488300,246.4727020263672000,94.9805297851562500,20.2851390838623050,29.9908695220947270,56,110,97,83,65,15399,2147516544,2147907702,2147996114,2147790061,2147326500,2147560960,2147927314,2148248804,617,7,12,15099
1346602152,5802,177.6699981689453000,20.2726993560791000,36.6473999023437500,251.0955963134765600,94.6562805175781200,20.2950706481933600,29.7829895019531250,68,115,99,85,65,15385,2147524717,2147958326,2148120027,2147789449,2147325174,2147589193,2147990381,2148250578,930,7,13,14965
1346602207,5802,173.7299957275390600,20.3619995117187500,36.6501998901367200,249.3372955322265600,92.5073928833007800,20.3609199523925780,29.8323307037353500,73,116,97,86,66,15381,2147527204,2147953600,2148103643,2147784256,2147326646,2147590098,2147974985,2148250066,1113,7,12,29709
1346602262,5803,169.9900054931640600,20.5858993530273440,36.6538009643554700,247.6912994384765600,84.8740310668945300,20.5949497222900400,29.8070697784423830,75,121,99,84,64,15378,2147519954,2147906139,2147926418,2147782893,2147322386,2147567067,2147887040,2148243072,1457,8,12,49711
1346602328,5802,165.8500061035156200,20.8878993988037100,36.7038993835449200,242.7953948974609400,76.2741165161132800,20.8588695526123050,29.9156494140625000,67,116,99,86,65,15381,2147553563,2148066276,2148374262,2147786614,2147334921,2147646336,2148102720,2148257289,1520,7,12,58103
1346602394,5802,162.0399932861328000,20.9601993560791000,36.6870002746582000,242.4461059570312500,71.4132766723632800,21.0081691741943360,29.8692798614501950,63,118,99,84,65,15382,2147567314,2148116297,2148483693,2147785892,2147341888,2147669458,2148149705,2148258560,1224,7,12,2976
1346602471,5804,158.6100006103515600,21.2541007995605470,36.6853981018066400,238.6121978759765600,64.2735366821289000,21.2276401519775400,29.9525203704834000,72,118,98,85,65,15377,2147583122,2148181284,2148616886,2147788598,2147348891,2147703707,2148216731,2148265051,932,7,13,41733
1346602647,5804,155.6600036621093800,21.3528003692626950,36.6949996948242200,240.8554992675781200,60.6371383666992200,21.3395004272460940,29.8035392761230470,74,118,98,84,64,15387,2147606409,2148229339,2148738697,2147787940,2147351104,2147731227,2148270720,2148266962,380,8,12,43833
1346602866,5801,151.1600036621093800,21.5478992462158200,36.6908988952636700,240.3307037353515600,54.1145210266113300,21.5402793884277340,29.7442607879638670,76,116,99,86,64,15380,2147582701,2148085833,2148293403,2147787227,2147348452,2147662134,2148061010,2148256466,2051,7,13,60637
1346602998,5799,146.8999938964843800,21.6464004516601560,36.7080993652343750,238.2082061767578000,50.7690315246582000,21.6433391571044920,29.7987594604492200,75,114,98,85,65,15386,2147618669,2148209334,2148587867,2147786733,2147363538,2147734902,2148217014,2148267017,1374,7,12,34028
1346603110,5801,142.3600006103515600,21.9083995819091800,36.7153015136718750,235.7756958007812500,43.0882797241210940,21.8801403045654300,29.8128299713134770,78,118,98,85,65,15374,2147727881,2148585682,2149471286,2147790482,2147406738,2147918729,2148623734,2148291200,960,8,12,7738
1346603198,5803,138.5899963378906200,22.0030994415283200,36.7080001831054700,234.5803070068359400,39.4743881225585940,21.9916496276855470,29.8223209381103500,80,119,99,86,65,15376,2147788598,2148731858,2149767414,2147795117,2147431689,2147997037,2148763492,2148301248,1127,7,13,31082
1346603297,5804,134.8300018310547000,22.1569995880126950,36.7103004455566400,233.7236938476562500,34.0169792175293000,22.1601696014404300,29.7928504943847660,82,122,100,86,64,15371,2147854628,2148907867,2150102180,2147799853,2147465618,2148082258,2148919268,2148310217,937,7,13,47893
1346603419,5805,130.6399993896484400,22.4365997314453120,36.7102012634277340,231.4528961181640600,25.4153995513916000,22.4260692596435550,29.7902107238769530,83,125,99,87,64,15367,2147960566,2149132571,2150539584,2147808246,2147506770,2148192530,2149115026,2148321499,1531,7,12,15177
1346603518,5801,126.6200027465820300,22.5977001190185550,36.7288017272949200,229.0373992919922000,20.1874294281005860,22.5878696441650400,29.8382301330566400,87,130,97,85,63,15357,2147967597,2149036352,2150146139,2147799433,2147502902,2148120923,2148914514,2148313353,2168,8,12,63781
1346603606,5803,122.7799987792968800,22.7240009307861330,36.7332992553710940,227.9165954589843800,16.1210498809814450,22.7138195037841800,29.8400592803955080,95,127,98,86,64,15353,2148257645,2149753728,2151655350,2147820809,2147623323,2148481664,2149598994,2148361289,3136,7,12,56443
1346603707,5804,118.6200027465820300,22.8288993835449220,36.6889991760253900,228.8218994140625000,12.3086996078491210,22.8319797515869140,29.7483406066894530,98,131,98,86,65,15347,2148481554,2150207387,2152470793,2147836022,2147713673,2148687862,2149970176,2148388013,2130,8,12,40638
1346603817,5803,115.1999969482421900,22.8794002532959000,36.6134986877441400,234.7434997558593800,11.0654897689819340,22.8705291748046880,29.4550895690917970,104,125,98,87,62,15345,2148696018,2150635730,2153296118,2147855707,2147795648,2148871460,2150317440,2148420123,1195,8,12,13581
1346604039,5804,111.1500015258789000,23.2513999938964840,36.6259002685546900,234.8428955078125000,-0.5511403083801270,23.2311592102050780,29.3041801452636720,109,129,99,86,63,15326,2148153773,2149164571,2150094646,2147811117,2147580105,2148161216,2148849618,2148312457,1117,8,12,32557
1346604182,5807,107.3000030517578100,23.5167999267578120,36.5471992492675800,236.3701934814453000,-8.7031784057617190,23.4846992492675780,29.1322498321533200,124,135,99,87,63,15329,2149314422,2151818148,2155496475,2147912493,2148039862,2149367780,2151164333,2148491437,829,8,12,4447
1346604393,5802,103.2699966430664000,23.7579002380371100,36.5430984497070300,238.5485992431640600,-17.0853500366210940,23.7458190917968750,28.9291801452636720,122,131,100,88,64,15313,2148899666,2150559533,2152475739,2147863725,2147868370,2148757888,2149810340,2148395584,1794,8,12,20647
1346604647,5804,99.0899963378906200,24.1902008056640620,36.5466995239257800,233.1089935302734400,-30.8712291717529300,24.1762199401855470,29.0047397613525400,152,137,100,88,62,15282,2149968694,2152620772,2156125293,2147947593,2148263908,2149581229,2151287286,2148526390,1445,7,12,27054
1346604713,5804,97.2500000000000000,24.4512996673584000,36.5918998718261700,228.6295928955078000,-39.5150108337402340,24.4467201232910160,29.1050205230712900,157,138,99,88,63,15259,2151119771,2154907803,2160270134,2148059053,2148656612,2150396909,2152757376,2148657280,1149,7,12,46770
1346604790,5801,95.4700012207031200,24.6091995239257800,36.5797996520996100,224.6143035888672000,-44.0915184020996100,24.5901393890380860,29.2383308410644530,166,144,102,90,64,15246,2149625289,2151551981,2153468516,2147884242,2148089700,2149018706,2150068918,2148429741,1024,7,12,58186
1346604911,5803,93.5999984741211000,24.7061004638671880,36.5359992980957000,224.6349945068359400,-47.2285194396972660,24.6885299682617200,29.1981105804443360,174,144,100,88,63,15257,2152275318,2156814400,2162921334,2148137682,2148989741,2150932937,2153536969,2148746486,628,8,12,11841
1346605021,5804,91.2500000000000000,24.8847999572753900,36.5177001953125000,224.4255981445312500,-52.7268409729003900,24.8611507415771500,29.1390495300292970,172,145,99,88,66,15247,2153750756,2159244571,2166285997,2148235465,2149410011,2151618971,2154587968,2148863076,109,8,12,54211
1346605098,5802,89.3499984741211000,25.0534000396728500,36.4771995544433600,223.3993072509765600,-58.2995109558105500,25.0363197326660160,29.1185607910156250,183,149,101,89,65,15230,2153431670,2158314870,2164036763,2148174262,2149303780,2151245394,2153783707,2148801270,908,7,12,63336
1346605320,5803,87.3099975585937500,25.3507003784179700,36.4631004333496100,224.1018981933593800,-67.9754409790039000,25.3410205841064450,28.9640903472900400,169,146,103,89,63,15213,2155990381,2162784338,2170691986,2148395556,2150028873,2152534811,2155906258,2149029760,940,8,12,41716
1346605408,5803,85.2200012207031200,25.5186996459960940,36.4674987792968750,223.7483062744140600,-74.2684173583984400,25.5395603179931640,28.9026508331298830,128,144,100,88,64,15239,2157588717,2165141805,2173445257,2148496987,2150508260,2153275730,2156900105,2149147044,711,8,11,44688
1346605639,5806,83.3499984741211000,25.7950000762939450,36.3820991516113300,223.1233978271484400,-82.2468719482421900,25.7917098999023440,28.8330192565917970,118,138,101,90,65,15266,2158628416,2166687744,2175454290,2148615972,2150794953,2153766272,2157641792,2149234742,2781,7,12,57683
1346605738,5804,81.4199981689453100,25.9528999328613280,36.3339996337890600,224.6443939208984400,-87.2073287963867200,25.9487304687500000,28.6990890502929700,109,137,101,89,65,15271,2160146176,2168717988,2177560694,2148713243,2151324534,2154562688,2158630500,2149348525,2552,8,12,10539
1346605926,5802,79.2500000000000000,26.1084003448486330,36.3168983459472660,224.4149932861328000,-91.8485565185546900,26.0958309173584000,28.6524200439453120,102,142,100,89,63,15267,2161682322,2170437769,2179000128,2148860242,2151875949,2155270098,2159294765,2149450944,2028,8,12,49796
1346606003,5803,77.2699966430664000,26.1564998626709000,36.3120994567871100,224.3753967285156200,-93.6619873046875000,26.1533508300781250,28.6317596435546880,101,141,101,91,62,15258,2165610313,2176170532,2186062866,2149156534,2153283666,2157542208,2162444498,2149780589,2646,8,12,16048
1346606091,5805,75.4899978637695300,26.2499008178710940,36.2764015197753900,224.6248016357422000,-96.5650100708007800,26.2454891204834000,28.5839805603027340,94,143,103,90,62,15250,2167906358,2178844388,2188361499,2149313819,2154192356,2158797220,2163829787,2149936457,2359,8,12,34248
1346606225,5802,73.0599975585937500,26.3836002349853500,36.2607994079589840,224.5234985351562500,-100.3737030029296900,26.3664703369140620,28.5416297912597660,90,147,102,92,63,15242,2170120192,2180859739,2189452260,2149498624,2155102226,2159792795,2164428178,2150029129,2681,8,12,47109
1346606291,5802,70.7600021362304700,26.4309005737304700,36.2524986267089840,224.6246948242187500,-101.8062973022461000,26.4120101928710940,28.5190391540527340,88,146,102,92,62,15235,2176292690,2188829229,2198204992,2150004580,2157595446,2163396873,2168798610,2150522221,3461,8,12,59654
1346606346,5806,68.9499969482421900,26.5697994232177730,36.2360000610351560,224.9347991943359400,-106.3775024414062500,26.5574302673339840,28.4479503631591800,87,146,102,91,60,15232,2179768036,2192572059,2201320420,2150242194,2159185508,2165372269,2170744850,2150757504,120,8,11,42037
1346606412,5803,67.3799972534179700,26.5951995849609380,36.2304000854492200,226.2373046875000000,-107.5323028564453100,26.5942001342773440,28.3726997375488280,83,146,103,92,63,15236,2179564169,2190420443,2196550537,2150059629,2159586697,2165296365,2169625426,2150637750,416,8,12,61885
1346606535,5805,64.8300018310546900,26.6916007995605470,36.2064018249511700,229.1746978759765600,-110.5878982543945300,26.6915397644042970,28.1988601684570300,81,146,101,91,61,15229,2193529325,2206983762,2214157632,2151269705,2165668416,2173078656,2177905892,2151628909,123,8,12,48740
1346606590,5804,62.9199981689453100,26.7647991180419920,36.1811981201171900,230.7980041503906200,-113.4016036987304700,26.7812404632568360,28.0900402069091800,80,150,103,92,59,15228,2200094482,2213386779,2219489536,2151826331,2168967588,2176645504,2181025792,2152034825,3530,8,11,33498
1346606645,5804,61.1500015258789060,27.0907993316650400,36.1717987060546900,232.9922027587890600,-123.4608001708984400,27.1024894714355470,27.8675899505615230,74,146,101,93,60,15227,2179115602,2183629430,2182247771,2149476717,2161260736,2164651355,2165108342,2150159314,3422,8,11,29908
1346606744,5803,59.7099990844726560,27.2915000915527340,36.1591987609863300,235.3323059082031200,-127.8917999267578100,27.2442798614501950,27.7091808319091800,75,141,104,92,60,15237,2205512786,2217744237,2221932553,2152313270,2174070784,2181765513,2184725924,2152511021,332,8,12,21899
1346606899,5802,57.1300010681152340,27.4988002777099600,36.1133003234863300,236.5260925292968800,-135.4851074218750000,27.4876708984375000,27.5639495849609380,77,156,103,93,57,15228,2218904365,2232385563,2236947830,2153844635,2182676662,2191138980,2193446427,2153643702,997,8,12,16969
1346606987,5804,55.5999984741210940,27.6415996551513670,36.0952987670898440,238.3527984619140600,-139.9781951904297000,27.6319408416748050,27.4294109344482420,75,145,103,91,58,15230,2218900992,2230827062,2234362560,2154076598,2183334848,2190930843,2192206756,2153620004,1803,8,11,12805
1346607252,5804,52.2700004577636700,27.8556995391845700,36.0660018920898440,238.7073059082031200,-146.4871978759765600,27.8412704467773440,27.3351306915283200,69,145,103,92,57,15219,2242333696,2257311542,2261761865,2157423058,2201918244,2211481956,2211158427,2155945618,3239,9,12,16931
1346607309,5802,50.8499984741210940,27.9960002899169920,36.0317993164062500,236.9931945800781200,-151.4598999023437500,28.0014705657959000,27.3493804931640620,67,145,106,94,60,15228,2235321124,2247467364,2249341028,2156421028,2201616228,2209785764,2208000274,2155564864,282,8,12,20978
1346607472,5804,48.8199996948242200,28.2219009399414060,35.9700012207031250,234.1735992431640600,-158.3475036621093800,28.2237396240234380,27.3896903991699220,63,146,103,93,56,15243,2207084105,2211006902,2207189659,2152609965,2185306678,2188003273,2183499181,2152553133,744,8,12,3435
1346607553,5803,46.8400001525878900,28.2679004669189450,35.9569015502929700,232.7555999755859400,-160.0944976806640600,28.2801895141601560,27.4311504364013670,62,139,103,90,56,15240,2257650706,2273636141,2279497280,2161746285,2219701595,2228817920,2225019520,2158308489,229,8,12,65182
1346607706,5802,44.8800010681152340,28.2749004364013670,35.9547996520996100,231.7301025390625000,-160.2144012451172000,28.2840690612792970,27.4755401611328120,62,136,100,92,57,15257,2201500617,2204019803,2200295158,2152881993,2186701952,2187591542,2181365257,2152385609,3100,8,11,6766
1346607785,5804,42.8899993896484400,28.2763004302978500,35.9547004699707000,231.7066040039062500,-160.1696014404297000,28.2826194763183600,27.4771003723144530,59,140,100,92,56,15255,2207960228,2210117714,2205645540,2153837339,2195219437,2195151963,2186566491,2153053878,2773,8,11,48164
1346607818,5806,41.3699989318847660,28.2768993377685550,35.9546012878418000,231.5892028808593800,-160.1907958984375000,28.2833099365234380,27.4821605682373050,59,136,101,90,54,15254,2218989888,2221967122,2217749366,2155728082,2206850294,2206937993,2196411364,2154355529,2694,8,11,2846
1346607851,5804,39.7099990844726560,28.2777996063232420,35.9539985656738300,231.6134948730468800,-160.2651977539062500,28.2857093811035160,27.4801197052001950,61,134,101,90,54,15260,2276566089,2290343222,2295878637,2169050843,2257816457,2263420452,2249993526,2162050925,2728,8,11,53460
1346607896,5805,37.2500000000000000,28.2782001495361330,35.9537010192871100,231.6298980712890600,-160.3585968017578000,28.2887306213378900,27.4782600402832030,59,134,100,90,57,15257,2294148809,2309100425,2315941238,2175052699,2276778258,2281546276,2263998006,2164603492,2946,8,11,26692